Regional Weather Roundup
Issued by NWS Wakefield, VA

Home | Current Version | Previous Version | Text Only | Print | Product List | Glossary Off
Versions: 1 2 3 4 5 6 7 8 9 10 11 12 13 14 15 16 17 18 19 20 21 22 23 24 25 26 27 28

000
ASUS41 KAKQ 281715
RWRAKQ

REGIONAL WEATHER ROUNDUP
NATIONAL WEATHER SERVICE WAKEFIELD VA
100 PM EDT THU JUL 28 2016

Note: "fair" indicates few or no clouds below 12,000 feet with no
significant weather and/or obstructions to visibility. * = Denotes
station may not report precipitation (e.g., rain,snow,etc.),
thunder or fog.

VAZ042-051-052>054-056-281800-
NORTHERN VIRGINIA

CITY           SKY/WX    TMP DP  RH WIND       PRES   REMARKS
WASH NATIONAL  PTSUNNY   90  74  59 S9        29.87F HX  99
DULLES         PTSUNNY   90  72  55 NW6       29.87F HX  97
FORT BELVOIR   FAIR      90  75  61 VRB5      29.87F HX 100
QUANTICO       FAIR      86  73  65 S6        29.88F
FREDERICKSBRG* FAIR      88  74  64 CALM      29.87F HX  97
STAFFORD*      FAIR      88  72  59 S3        29.92F
WARRENTON      FAIR      90  69  49 SE3       29.88F HX  95
CULPEPER*      FAIR      88  76  66 CALM      29.89F HX  98
MANASSAS*      NOT AVBL
LEESBURG*      FAIR      90  75  62 CALM      29.89F HX 100
WINCHESTER     FAIR      86  72  62 SE3       29.89F
FRONT ROYAL*   FAIR      86  73  66 NE5       29.89F
LURAY*         NOT AVBL
$$

VAZ048-049-060>072-079>083-281800-
CENTRAL AND SOUTH CENTRAL VIRGINIA

CITY           SKY/WX    TMP DP  RH WIND       PRES   REMARKS
RICHMOND       FAIR      89  74  60 VRB3      29.88F HX  98
CHESTERFIELD*  FAIR      93  66  40 S6        29.90F HX  96
PETERSBURG*    FAIR      93  75  56 S5        29.90S HX 104
HANOVER        FAIR      93  70  46 W6        29.89F HX  99
TAPPAHANNOCK*  FAIR      93  71  49 S9        29.89S HX 100
QUINTON*       PTSUNNY   90  76  63 SE3       29.88F HX 101
CHARLOTTSVILLE PTSUNNY   92  71  50 S8        29.89F HX  98
GORDONSVILLE*  FAIR      89  75  62 CALM      29.89F HX  99
ORANGE*          N/A     88  72  58 CALM      29.91F
LOUISA*        FAIR      91  77  62 CALM      29.89F HX 105
BUMPASS*       FAIR      88  76  67 S5        29.89F HX  98
FARMVILLE*     NOT AVBL
CREWE*         NOT AVBL
FORT PICKETT*  FAIR      90  77  66 S6        29.90F HX 103
CHASE CITY*    FAIR      89  75  63 SW3       29.91F HX  98
CLARKSVILLE*   FAIR      90  77  66 S3        29.91S HX 102
SOUTH HILL*    FAIR      89  77  69 SW5       29.97S HX 101
LAWRENCEVILLE* FAIR      91  78  67 S3        29.91S HX 105
EMPORIA*       FAIR      91  77  62 SE6       29.91F HX 105
$$

VAZ088>098-281800-
SOUTHEAST VIRGINIA

CITY           SKY/WX    TMP DP  RH WIND       PRES   REMARKS
NORFOLK        FAIR      92  79  65 NE9       29.88F HX 108
VIRGINIA BEACH PTSUNNY   98  76  49 S5        29.88F HX 112
NORFOLK NAVAL  FAIR      95  78  58 NE6       29.90S HX 111
WEST POINT*    PTSUNNY   91  74  57 S5        29.89F HX 100
SALUDA*        PTSUNNY   90  82  76 S5        29.88F HX 110
NEWPORT NEWS   FAIR      92  76  59 S6        29.89F HX 104
LANGLEY AFB    MOSUNNY   93  77  59 VRB5      29.88F HX 107
FORT EUSTIS    NOT AVBL
WILLIAMSBURG*  FAIR      95  79  59 S6        29.90S HX 112
HR EXEC AP*    FAIR      93  79  62 S3        29.90F HX 110
FRANKLIN*      FAIR      91  78  65 S5        29.89F HX 106
US460-WAKEFLD  FAIR      90  76  63 CALM      29.89F HX 101
$$

VAZ020-022-025-037-045-281800-
WEST CENTRAL AND SOUTHWEST VIRGINIA

CITY           SKY/WX    TMP DP  RH WIND       PRES   REMARKS
STAUNTON*      FAIR      84  72  67 W3        29.94F
WAYNESBORO*    FAIR      87  70  56 CALM      29.94F
HOT SPRINGS VA FAIR      75  66  73 W8        30.08S
LYNCHBURG      FAIR      89  70  53 VRB6      29.93F
DANVILLE       FAIR      89  74  60 CALM      29.91F HX  98
SOUTH BOSTON*  FAIR     N/A N/A N/A S5        29.90F
MARTINSVILLE   FAIR      89  72  56 CALM      29.96F HX  95
ROANOKE        FAIR      88  70  55 SW6       29.95F
BLACKSBURG     CLOUDY    82  71  69 S3        30.04S
DUBLIN*        PTSUNNY   86  69  56 SW5       30.02F
MARION*        FAIR      83  71  66 W12       30.05F
HILLSVILLE*    FAIR      81  71  71 CALM      30.03F
RICHLANDS*     CLOUDY    76  71  85 SW9       30.05S
WISE*          CLOUDY    73  68  83 SW8       30.05F
ABINGDON*      CLOUDY    81  71  71 W7        30.02F
$$

MDZ021>025-VAZ099-100-281800-
SOUTHERN MARYLAND AND THE DELMARVA PENINSULA

CITY           SKY/WX    TMP DP  RH WIND       PRES   REMARKS
PATUXENT RIVER CLOUDY    87  74  64 SE7       29.87F HX  95
BAY BRIDGE APT CLOUDY    91  77  62 S5        29.87F HX 105
LEONARDTOWN      N/A     86  73  66 CALM      29.90
DOVER          NOT AVBL
GEORGETOWN     CLOUDY    91  74  57 SE9       29.87F HX 100
EASTON         PTSUNNY   90  81  74 N5        29.90F HX 108
CAMBRIDGE      CLOUDY    88  77  70 S6        29.86F HX 100
SALISBURY      NOT AVBL
OCEAN CITY     CLOUDY    82  79  90 VRB6      29.90F
WALLOPS ISLAND PTSUNNY   88  80  77 S12       29.90F HX 104
ACCOMACK*      CLOUDY    86  81  84 CALM      29.89F HX 102
$$

NCZ012>017-030>032-281800-
NORTH CENTRAL AND EASTERN NORTH CAROLINA

CITY           SKY/WX    TMP DP  RH WIND       PRES   REMARKS
ROANOKE RAPIDS FAIR      90  79  70 S8        29.90F HX 105
RALEIGH        MOSUNNY   94  74  52 SW12      29.91F HX 104
ELIZABETH CITY SUNNY     92  79  65 S9        29.90F HX 108
AHOSKIE*       SUNNY     90  79  70 S3        29.90F HX 106
EDENTON*       SUNNY     93  77  58 SW5       29.90F HX 107
CURRITUCK*     MOSUNNY   93  79  63 S3        29.91S HX 109
KILL DEVIL HLS SUNNY     97  78  54 S6        29.90F HX 112
MANTEO           N/A     90  82  78 S8        29.92S HX 110
CAPE HATTERAS  SUNNY     88  81  79 SW8       29.93F HX 106
TARBORO*       PTSUNNY   94  80  63 S6        29.91F HX 112
GOLDSBORO      SUNNY     97  72  45 SW14      29.90F HX 106
WASHINGTON     SUNNY     93  78  62 W6        29.90F HX 109
GREENVILLE     SUNNY     95  79  59 W9        29.93S HX 112
NEW BERN       SUNNY     95  77  55 SW8       29.93F HX 109
WILMINGTON     SUNNY     95  72  47 W13       29.95S HX 103
$$

VAZ048-281800-
ELSEWHERE

CITY           SKY/WX    TMP DP  RH WIND       PRES   REMARKS
HARRISBURG PA  CLOUDY    85  74  69 VRB5      29.88F
BALTIMORE      CLOUDY    90  74  59 S8        29.86F HX  99
ANNAPOLIS        N/A    N/A N/A N/A MISG      29.86F
ANDREWS AFB    NOT AVBL
PHILADELPHIA   PTSUNNY   91  67  44 S7        29.88F
GREENSBORO     PTSUNNY   91  72  53 W10       29.93F HX  98
ROCKY MOUNT    MOSUNNY   94  78  60 SW8       29.91F HX 110
$$

VAZ100-281800-
MARINE

STATION/POSITION TIME  TEMP    WIND        PRES    WAVE   SWELL
                       AIR SEA DIR/SP/G            HT/PER HT/PER
                 (UTC) (F)     (DEG/KT/KT) (MB)    (FT/S) (FT/S)
BRANDYWINE LGT   1600   80     150/  8/  9   N/A
CAPE MAY NJ      1600   86 73  140/  8/ 10 1012.1F
LEWES DE         1600   85 75  130/  7/ 11 1012.5S
OCEAN-CITY-INLET 1600   82 79  180/  5/  6 1013.1F
WACHAPREAGUE VA  1600   86 87  160/  6/  8 1012.5F
THOMAS POINT MD  1700   84 85  220/  6/  6 1012.7F
GOOSES REEF MD   1700   86 86  190/  8/ 10 1012.5F   1
COVE POINT MD    1600   84     190/  7/  9 1012.8R
SOLOMONS ISLAND  1600   86 86  130/  5/  7   N/A
BISHOPS HEAD MD  1600   86     170/ 10/ 11 1012.5F
PINEY POINT MD   1600          160/  6/  7   N/A
POTOMAC MD       1700   86 86  150/ 12/ 14 1010.5F   1
CAMBRIDGE MD     1600   88 88  180/  4/  8 1011.3R
LEWISETTA VA     1600   85 87   90/  7/  8 1011.8S
RAPPAHANNOCK LGT 1600          220/  6/  7 1013.0F
STINGRAY PT      1700   87 88  110/  8/ 10 1012.5F   1
YORK RVR RNG VA  1600   85     140/  7/  8 1011.9F
YORKTOWN VA      1600   86 85   60/  7/  8 1011.8F
JAMESTOWN VA     1700   89      CALM  /  4   N/A     0
DOMINION TERM VA 1600   88     250/  4/  5 1012.4F
KIPTOPEKE VA     1600      82  210/  5/  6   N/A
CHES BAY BRIDGE  1600   82 83   60/  7/  8 1012.4F
CAPE HENRY VA    1600   83     100/  8/  9   N/A
WILLOUBY STN VA  1600   85     280/  6/  6   N/A
CAPE HENRY BUOY  1612      78                N/A     1/ 8
1ST LANDING BUOY 1700   83 84  120/  8/ 10 1011.7F   1/ 4
CAPE CHARLES BUO 1626      80                N/A     1/ 8
OFFSHORE WE BUOY 1621      84                N/A     1/ 8
64NM E OF VA BCH 1650   83 84  220/ 10/ 12 1012.8F   2/ 8   2/ 8
DUCK PIER NC     1600   83 77  130/  7/  9 1012.4F
44100 DUCK FRF   1605      80                N/A     1/ 8
44056 DUCK FRF   1611      80                N/A     1/ 8
OREGON INLET NC  1600   85 84  190/  9/ 11 1013.2F
HATTERAS NC      1600   86 83  210/  9/ 12 1013.5F
DIAMOND SHLS NC  1650   85 85  230/ 12/ 16 1013.6F   2/ 6   2/ 6
CAPE LOOKOUT NC  1700   86     220/ 10/ 13 1013.5F
$$




USA.gov is the U.S. government's official web portal to all federal, state and local government web resources and services.